When you browse on this site, cookies collect data to enhance your experience and personalize the content and advertising you see.
Visit our Privacy Policy to learn more. By continuing to use the site, you agree to this use of cookies and data.

Hourly Weather Cardonal

Today, 7 August, Friday

Time Temperature Precipitation Wind Pressure Humidity
00:00 +16°C° 0.1 mm 1 mps 600 mmHg 94%
01:00 +16°C° 0.1 mm 1 mps 599 mmHg 93%
02:00 +16°C° 0.1 mm 1 mps 599 mmHg 92%
03:00 +16°C° 0.1 mm 1 mps 599 mmHg 93%
04:00 +15°C° 0.1 mm 1 mps 599 mmHg 94%
05:00 +15°C° 0.1 mm 1 mps 599 mmHg 95%
06:00 +16°C° 0 mm 1 mps 600 mmHg 89%
07:00 +18°C° 0 mm 1 mps 600 mmHg 83%
08:00 +19°C° 0 mm 1 mps 601 mmHg 77%
09:00 +20°C° 0.1 mm 2 mps 601 mmHg 71%
10:00 +21°C° 0.1 mm 2 mps 602 mmHg 65%
11:00 +22°C° 0.1 mm 3 mps 602 mmHg 59%
12:00 +22°C° 0.3 mm 3 mps 602 mmHg 59%
13:00 +23°C° 0.3 mm 4 mps 601 mmHg 59%
14:00 +23°C° 0.3 mm 5 mps 600 mmHg 59%
15:00 +22°C° 0.1 mm 4 mps 600 mmHg 63%
16:00 +21°C° 0.1 mm 4 mps 600 mmHg 68%
17:00 +20°C° 0.1 mm 4 mps 600 mmHg 72%
18:00 +18°C° 0.1 mm 3 mps 600 mmHg 80%
19:00 +17°C° 0.1 mm 2 mps 600 mmHg 87%
20:00 +16°C° 0.1 mm 1 mps 600 mmHg 95%
21:00 +15°C° 0 mm 1 mps 600 mmHg 95%
22:00 +15°C° 0 mm 1 mps 600 mmHg 96%
23:00 +15°C° 0 mm 1 mps 600 mmHg 96%

Tomorrow, 8 August, Saturday

Time Temperature Precipitation Wind Pressure Humidity
00:00 +15°C° 0 mm 1 mps 600 mmHg 96%
01:00 +13°C° 0 mm 0 mps 599 mmHg 96%
02:00 +13°C° 0 mm 0 mps 599 mmHg 95%
03:00 +13°C° 0 mm 0 mps 599 mmHg 95%
04:00 +13°C° 0 mm 0 mps 599 mmHg 94%
05:00 +13°C° 0 mm 0 mps 599 mmHg 93%
06:00 +15°C° 0 mm 1 mps 600 mmHg 88%
07:00 +16°C° 0 mm 1 mps 601 mmHg 82%
08:00 +19°C° 0 mm 1 mps 601 mmHg 76%
09:00 +19°C° 0.1 mm 2 mps 602 mmHg 72%
10:00 +20°C° 0.1 mm 2 mps 602 mmHg 68%
11:00 +21°C° 0.1 mm 3 mps 602 mmHg 63%
12:00 +21°C° 0.8 mm 3 mps 602 mmHg 66%
13:00 +21°C° 0.8 mm 4 mps 601 mmHg 68%
14:00 +21°C° 0.8 mm 4 mps 601 mmHg 71%
15:00 +20°C° 0.7 mm 4 mps 600 mmHg 74%
16:00 +19°C° 0.7 mm 4 mps 600 mmHg 78%
17:00 +18°C° 0.7 mm 4 mps 600 mmHg 82%
18:00 +17°C° 0.1 mm 3 mps 600 mmHg 86%
19:00 +16°C° 0.1 mm 2 mps 600 mmHg 90%
20:00 +15°C° 0.1 mm 2 mps 600 mmHg 94%
21:00 +15°C° 0 mm 2 mps 601 mmHg 94%
22:00 +15°C° 0 mm 2 mps 601 mmHg 94%
23:00 +15°C° 0 mm 2 mps 601 mmHg 94%

Day after tomorrow, 9 August, Sunday

Time Temperature Precipitation Wind Pressure Humidity
00:00 +15°C° 0 mm 1 mps 600 mmHg 94%
01:00 +14°C° 0 mm 1 mps 600 mmHg 94%
02:00 +14°C° 0 mm 1 mps 600 mmHg 93%
03:00 +14°C° 0 mm 1 mps 600 mmHg 93%
04:00 +14°C° 0 mm 1 mps 600 mmHg 92%
05:00 +14°C° 0 mm 1 mps 600 mmHg 92%
06:00 +15°C° 0 mm 1 mps 600 mmHg 89%
07:00 +15°C° 0 mm 1 mps 601 mmHg 86%
08:00 +16°C° 0 mm 1 mps 601 mmHg 83%
09:00 +17°C° 0 mm 2 mps 602 mmHg 79%
10:00 +18°C° 0 mm 2 mps 602 mmHg 75%
11:00 +19°C° 0 mm 2 mps 602 mmHg 71%
12:00 +19°C° 0.2 mm 2 mps 601 mmHg 73%
13:00 +19°C° 0.2 mm 3 mps 601 mmHg 75%
14:00 +19°C° 0.2 mm 3 mps 600 mmHg 77%
15:00 +18°C° 0.3 mm 3 mps 600 mmHg 80%
16:00 +18°C° 0.3 mm 3 mps 600 mmHg 84%
17:00 +17°C° 0.3 mm 3 mps 599 mmHg 88%
18:00 +17°C° 0.2 mm 2 mps 600 mmHg 90%
19:00 +16°C° 0.2 mm 2 mps 600 mmHg 93%
20:00 +15°C° 0.2 mm 2 mps 600 mmHg 95%
21:00 +15°C° 1.7 mm 1 mps 600 mmHg 95%
22:00 +15°C° 1.7 mm 1 mps 600 mmHg 96%
23:00 +15°C° 1.7 mm 1 mps 601 mmHg 96%

10 August, Monday

Time Temperature Precipitation Wind Pressure Humidity
00:00 +15°C° 0.9 mm 1 mps 600 mmHg 96%
01:00 +15°C° 0.9 mm 1 mps 600 mmHg 96%
02:00 +15°C° 0.9 mm 1 mps 599 mmHg 96%
03:00 +15°C° 0.1 mm 1 mps 599 mmHg 96%
04:00 +14°C° 0.1 mm 1 mps 599 mmHg 96%
05:00 +13°C° 0.1 mm 0 mps 599 mmHg 96%
06:00 +14°C° 0 mm 0 mps 600 mmHg 93%
07:00 +15°C° 0 mm 1 mps 600 mmHg 89%
08:00 +16°C° 0 mm 1 mps 601 mmHg 86%
09:00 +18°C° 0 mm 1 mps 601 mmHg 80%
10:00 +19°C° 0 mm 2 mps 601 mmHg 73%
11:00 +20°C° 0 mm 2 mps 602 mmHg 66%
12:00 +20°C° 0.1 mm 3 mps 601 mmHg 67%
13:00 +20°C° 0.1 mm 3 mps 601 mmHg 67%
14:00 +21°C° 0.1 mm 4 mps 600 mmHg 68%
15:00 +20°C° 0.3 mm 3 mps 600 mmHg 73%
16:00 +19°C° 0.3 mm 3 mps 599 mmHg 77%
17:00 +18°C° 0.3 mm 3 mps 599 mmHg 82%
18:00 +18°C° 0.3 mm 3 mps 599 mmHg 86%
19:00 +17°C° 0.3 mm 2 mps 600 mmHg 90%
20:00 +16°C° 0.3 mm 2 mps 600 mmHg 94%
21:00 +16°C° 1.4 mm 2 mps 600 mmHg 95%
22:00 +16°C° 1.4 mm 1 mps 600 mmHg 95%
23:00 +16°C° 1.4 mm 1 mps 600 mmHg 95%

11 August, Tuesday

Time Temperature Precipitation Wind Pressure Humidity
00:00 +15°C° 1.7 mm 1 mps 599 mmHg 95%
01:00 +15°C° 1.7 mm 1 mps 599 mmHg 95%
02:00 +15°C° 1.7 mm 1 mps 599 mmHg 95%
03:00 +15°C° 0.1 mm 1 mps 598 mmHg 95%
04:00 +14°C° 0.1 mm 0 mps 598 mmHg 95%
05:00 +14°C° 0.1 mm 0 mps 598 mmHg 94%
06:00 +15°C° 0 mm 1 mps 599 mmHg 90%
07:00 +16°C° 0 mm 1 mps 600 mmHg 85%
08:00 +18°C° 0 mm 1 mps 600 mmHg 81%
09:00 +19°C° 0 mm 2 mps 600 mmHg 74%
10:00 +20°C° 0 mm 2 mps 601 mmHg 67%
11:00 +21°C° 0 mm 3 mps 601 mmHg 61%
12:00 +21°C° 0.2 mm 3 mps 600 mmHg 63%
13:00 +21°C° 0.2 mm 4 mps 600 mmHg 65%
14:00 +21°C° 0.2 mm 4 mps 599 mmHg 67%
15:00 +20°C° 0.3 mm 4 mps 599 mmHg 72%
16:00 +19°C° 0.3 mm 4 mps 599 mmHg 77%
17:00 +18°C° 0.3 mm 4 mps 598 mmHg 81%
18:00 +17°C° 0.2 mm 3 mps 598 mmHg 86%
19:00 +17°C° 0.2 mm 2 mps 599 mmHg 90%
20:00 +16°C° 0.2 mm 1 mps 599 mmHg 94%
21:00 +16°C° 0.2 mm 1 mps 599 mmHg 94%
22:00 +16°C° 0.2 mm 1 mps 599 mmHg 94%
23:00 +16°C° 0.2 mm 1 mps 599 mmHg 94%

12 August, Wednesday

Time Temperature Precipitation Wind Pressure Humidity
00:00 +15°C° 0 mm 1 mps 599 mmHg 94%
01:00 +15°C° 0 mm 1 mps 598 mmHg 94%
02:00 +15°C° 0 mm 1 mps 598 mmHg 94%
03:00 +14°C° 0 mm 1 mps 598 mmHg 95%
04:00 +13°C° 0 mm 0 mps 598 mmHg 96%
05:00 +13°C° 0 mm 0 mps 598 mmHg 96%
06:00 +14°C° 0 mm 0 mps 599 mmHg 91%
07:00 +16°C° 0 mm 1 mps 599 mmHg 85%
08:00 +18°C° 0 mm 1 mps 600 mmHg 79%
09:00 +19°C° 0 mm 1 mps 600 mmHg 75%
10:00 +19°C° 0 mm 2 mps 600 mmHg 72%
11:00 +20°C° 0 mm 2 mps 600 mmHg 68%
12:00 +20°C° 0 mm 3 mps 600 mmHg 67%
13:00 +21°C° 0 mm 3 mps 600 mmHg 67%
14:00 +21°C° 0 mm 4 mps 599 mmHg 67%
15:00 +20°C° 0.2 mm 4 mps 599 mmHg 71%
16:00 +20°C° 0.2 mm 4 mps 599 mmHg 74%
17:00 +19°C° 0.2 mm 4 mps 599 mmHg 78%
18:00 +18°C° 0.1 mm 3 mps 599 mmHg 83%
19:00 +17°C° 0.1 mm 2 mps 599 mmHg 88%
20:00 +16°C° 0.1 mm 2 mps 599 mmHg 93%
21:00 +15°C° 0 mm 1 mps 599 mmHg 94%
22:00 +15°C° 0 mm 1 mps 599 mmHg 94%
23:00 +15°C° 0 mm 1 mps 599 mmHg 95%
Show more